Regional Weather Roundup
Issued by NWS

Home | Current Version | Previous Version | Graphics & Text | Print | Product List | Glossary On
Versions: 1 2 3 4 5 6 7 8 9 10 11 12 13 14 15 16 17 18 19 20 21 22 23 24 25 26 27 28 29 30 31 32 33 34 35 36 37 38 39 40 41 42 43 44 45 46 47 48 49 50
000
ASUS43 KMKX 080021
RWRWI

WISCONSIN REGIONAL WEATHER ROUNDUP
NATIONAL WEATHER SERVICE MILWAUKEE/SULLIVAN WI
700 PM CDT TUE JUL 07 2015

NOTE: "FAIR" INDICATES FEW OR NO CLOUDS BELOW 12,000 FEET WITH NO
SIGNIFICANT WEATHER AND/OR OBSTRUCTIONS TO VISIBILITY.

WIZ001-002-006>008-014>016-023>028-080100-
NORTHWEST WISCONSIN

CITY           SKY/WX    TMP DP  RH WIND       PRES   REMARKS
SUPERIOR ARPT  SUNNY     70  48  45 SW7       30.08S
6HR MIN TEMP:  67; 6HR MAX TEMP:  73;

ASHLAND        SUNNY     70  48  45 CALM      30.10S
6HR MIN TEMP:  66; 6HR MAX TEMP:  71;

HAYWARD        SUNNY     69  42  37 N3        30.12S
6HR MIN TEMP:  64; 6HR MAX TEMP:  70;

SIREN          SUNNY     69  41  36 CALM      30.11F
6HR MIN TEMP:  65; 6HR MAX TEMP:  71;

CUMBERLAND     SUNNY     64  43  45 N5        30.12S
RICE LAKE      SUNNY     68  46  45 NW3       30.13S
6HR MIN TEMP:  65; 6HR MAX TEMP:  70;

CHETEK         SUNNY     68  48  48 N5        30.11S
6HR MIN TEMP:  65; 6HR MAX TEMP:  70;

LADYSMITH      SUNNY     67  43  41 N6        30.13S
6HR MIN TEMP:  65; 6HR MAX TEMP:  70;

EAU CLAIRE     SUNNY     70  45  40 VRB5      30.09S
6HR MIN TEMP:  66; 6HR MAX TEMP:  72;

MENOMONIE      SUNNY     69  47  43 NW5       30.10S
6HR MIN TEMP:  66; 6HR MAX TEMP:  71;

NEW RICHMOND   MOSUNNY   68  49  51 N6        30.12S
6HR MIN TEMP:  64; 6HR MAX TEMP:  69;

OSCEOLA        SUNNY     69  48  47 CALM      30.14S
6HR MIN TEMP:  65; 6HR MAX TEMP:  70;

$$

WIZ003>005-009-010-017-018-080100-
NORTH CENTRAL WISCONSIN

CITY           SKY/WX    TMP DP  RH WIND       PRES   REMARKS
MANITOWISH WTR SUNNY     64  43  46 N5        30.12S
6HR MIN TEMP:  60; 6HR MAX TEMP:  65;

ARBOR VITAE    SUNNY     64  45  48 NW7       30.11S
6HR MIN TEMP:  62; 6HR MAX TEMP:  67;

WOODRUFF       SUNNY     64  45  48 NW7       30.11S
6HR MIN TEMP:  62; 6HR MAX TEMP:  67;

RHINELANDER    SUNNY     65  44  46 N5        30.11S
6HR MIN TEMP:  61; 6HR MAX TEMP:  68;

EAGLE RIVER    SUNNY     64  43  45 N5        30.11R
LAND O LAKES   SUNNY     64  42  44 N6        30.12S
6HR MIN TEMP:  61; 6HR MAX TEMP:  65;

PHILLIPS       SUNNY     64  44  48 N6        30.12R
6HR MIN TEMP:  63; 6HR MAX TEMP:  67;

TOMAHAWK       SUNNY     65  45  48 N3        30.11S
6HR MIN TEMP:  62; 6HR MAX TEMP:  67;

MEDFORD        SUNNY     66  47  49 N8        30.11R
6HR MIN TEMP:  64; 6HR MAX TEMP:  68;

MERRILL        SUNNY     66  47  49 NE8       30.10S
6HR MIN TEMP:  63; 6HR MAX TEMP:  69;

$$

WIZ029-030-035-036-043>047-080100-
CENTRAL WISCONSIN

CITY           SKY/WX    TMP DP  RH WIND       PRES   REMARKS
WAUSAU         PTSUNNY   69  45  41 N8        30.08S
6HR MIN TEMP:  65; 6HR MAX TEMP:  71;

MOSINEE        MOSUNNY   66  46  48 N6        30.10S
MARSHFIELD     PTSUNNY   69  46  43 N9        30.09S
6HR MIN TEMP:  64; 6HR MAX TEMP:  72;

STEVENS POINT  MOSUNNY   66  46  48 N6        30.09S
6HR MIN TEMP:  62; 6HR MAX TEMP:  68;

WAUPACA        MOSUNNY   71  47  42 N6        30.08S
6HR MIN TEMP:  68; 6HR MAX TEMP:  74;

WAUTOMA        PTSUNNY   71  47  42 N8        30.08S
6HR MIN TEMP:  66; 6HR MAX TEMP:  71;

WISC RAPIDS    MOSUNNY   69  45  41 N10       30.09S
6HR MIN TEMP:  64; 6HR MAX TEMP:  72;

CAMP DOUGLAS   PTSUNNY   68  52  56 NE5       30.08R
$$

WIZ011>013-019>022-031-037>040-048>050-080100-
NORTHEAST WISCONSIN

CITY           SKY/WX    TMP DP  RH WIND       PRES   REMARKS
ANTIGO         MOSUNNY   64  48  55 N7        30.10S
SHAWANO        MOSUNNY   69  47  45 N8        30.08S
6HR MIN TEMP:  67; 6HR MAX TEMP:  72;

OCONTO         MOSUNNY   68  49  50 N6        30.07R
6HR MIN TEMP:  65; 6HR MAX TEMP:  69;

STURGEON BAY   SUNNY     64  48  55 NE6       30.10R
6HR MIN TEMP:  61; 6HR MAX TEMP:  66;

GREEN BAY      MOSUNNY   69  49  48 N8        30.08R
6HR MIN TEMP:  66; 6HR MAX TEMP:  72;

MANITOWOC      MOSUNNY   62  50  64 MISG      30.09R
6HR MIN TEMP:  62; 6HR MAX TEMP:  67;

APPLETON       MOSUNNY   66  46  48 N12       30.08S
CLINTONVILLE   SUNNY     68  46  45 N5        30.08R
OSHKOSH        MOSUNNY   68  47  46 N12       30.07R
6HR MIN TEMP:  66; 6HR MAX TEMP:  71;

$$

WIZ032>034-041-042-053>061-080100-
SOUTHWEST WISCONSIN

CITY           SKY/WX    TMP DP  RH WIND       PRES   REMARKS
LA CROSSE      SUNNY     70  49  47 N8        30.08F
6HR MIN TEMP:  65; 6HR MAX TEMP:  72;

SPARTA         PTSUNNY   70  46  43 N5        30.09S
6HR MIN TEMP:  64; 6HR MAX TEMP:  71;

VIROQUA        MOSUNNY   65  50  58 E6        30.10S
6HR MIN TEMP:  61; 6HR MAX TEMP:  68;

BOSCOBEL       CLOUDY    69  50  50 E6        30.10R
6HR MIN TEMP:  67; 6HR MAX TEMP:  72;

PRAIRIE DU CHI PTSUNNY   68  46  44 CALM      30.09S
6HR MIN TEMP:  65; 6HR MAX TEMP:  69;

PLATTEVILLE    PTSUNNY   68  50  53 N6        30.09S
6HR MIN TEMP:  65; 6HR MAX TEMP:  69;

$$

WIZ056-057-062-063-064-067-068-080100-
SOUTH CENTRAL WISCONSIN

CITY           SKY/WX    TMP DP  RH WIND       PRES   REMARKS
REEDSBURG      PTSUNNY   68  49  51 NE5       30.08S
6HR MIN TEMP:  65; 6HR MAX TEMP:  68;

BARABOO/DELLS  PTSUNNY   65  49  55 CALM      30.09R
6HR MIN TEMP:  64; 6HR MAX TEMP:  69;

LONE ROCK      MOSUNNY   69  48  47 NE6       30.10R
6HR MIN TEMP:  66; 6HR MAX TEMP:  71;

MINERAL POINT  PTSUNNY   68  45  42 N5        30.10R
MADISON        PTSUNNY   66  50  56 NE6       30.08R
6HR MIN TEMP:  66; 6HR MAX TEMP:  71;

MIDDLETON      CLOUDY    67  49  51 NE3       30.09R
6HR MIN TEMP:  67; 6HR MAX TEMP:  71;

WATERTOWN      PTSUNNY   66  49  54 N7        30.08R
6HR MIN TEMP:  64; 6HR MAX TEMP:  68;

MONROE         MOSUNNY   63  52  67 N6        30.08S
JANESVILLE     MOSUNNY   70  48  46 N8        30.07R
$$

WIZ051-052-058>065-066-070>072-080100-
SOUTHEAST WISCONSIN

CITY           SKY/WX    TMP DP  RH WIND       PRES   REMARKS
MILWAUKEE      MOSUNNY   60  48  64 NE10      30.09R
6HR MIN TEMP:  60; 6HR MAX TEMP:  66;

WAUKESHA       MOSUNNY   61  48  63 NE9       30.10R
MILWAUKEE/TIMM PTSUNNY   61  45  55 E8        30.10R
RACINE         SUNNY     60  48  64 NE10      30.10R
6HR MIN TEMP:  60; 6HR MAX TEMP:  67;

BURLINGTON     SUNNY     62  49  63 E8        30.08R
6HR MIN TEMP:  62; 6HR MAX TEMP:  69;

KENOSHA        SUNNY     62  49  62 NE8       30.08S
6HR MIN TEMP:  62; 6HR MAX TEMP:  68;

FOND DU LAC    SUNNY     68  49  50 NE9       30.07S
6HR MIN TEMP:  66; 6HR MAX TEMP:  70;

SHEBOYGAN      SUNNY     61  49  64 NE7       30.09R
6HR MIN TEMP:  60; 6HR MAX TEMP:  68;

WEST BEND      CLOUDY    59  46  63 E6        30.09R
JUNEAU         PTSUNNY   65  49  55 NE7       30.09R
6HR MIN TEMP:  63; 6HR MAX TEMP:  68;

$$

LSZ147-162-080100-
LAKE SUPERIOR

STATION/POSITION TIME  TEMP    WIND        PRES    WAVE
                       AIR SEA DIR/SP/G            HT/PER
                 (UTC) (F)     (DEG/KT/KT) (MB)    (FT/S)
W MID LAKE BUOY  2350   46 39  200/  8/  8 1019.0F   1
DEVILS ISLAND    0000   65     180/  6/  9 1018.8F
PORT WING        2340   71     260/  4/  9 1018.6F
SAXON HARBOR     2340   70        CALM     1019.0F
$$

LMZ867-665-643>646-080100-
LAKE MICHIGAN

STATION/POSITION TIME  TEMP    WIND        PRES    WAVE
                       AIR SEA DIR/SP/G            HT/PER
                 (UTC) (F)     (DEG/KT/KT) (MB)    (FT/S)
CHAMBERS ISLAND  2300   65      30/ 13/ 15 1017.6F


USA.gov is the U.S. government's official web portal to all federal, state and local government web resources and services.